owner,sensor,date,latitude,longitude,vertical_datum,sea_water_practical_salinity,qcFlag 
TABS,ioos:station:wmo:42048:1,2017-11-01T00:00:00Z,27.9396,-96.8429,2.0,32.7063,11111222 
TABS,ioos:station:wmo:42048:1,2017-11-01T00:30:00Z,27.9396,-96.8429,2.0,32.7584,11111222 
TABS,ioos:station:wmo:42048:1,2017-11-01T01:00:00Z,27.9396,-96.8429,2.0,32.7553,11111222 
TABS,ioos:station:wmo:42048:1,2017-11-01T01:30:00Z,27.9396,-96.8429,2.0,32.7877,11111222 
TABS,ioos:station:wmo:42048:1,2017-11-01T02:00:00Z,27.9396,-96.8429,2.0,32.7157,11111222 
TABS,ioos:station:wmo:42048:1,2017-11-01T02:30:00Z,27.9396,-96.8429,2.0,32.7379,11111222 
TABS,ioos:station:wmo:42048:1,2017-11-01T03:00:00Z,27.9396,-96.8429,2.0,32.7441,11111222 
TABS,ioos:station:wmo:42048:1,2017-11-01T03:30:00Z,27.9396,-96.8429,2.0,32.759,11111222 
TABS,ioos:station:wmo:42048:1,2017-11-01T04:00:00Z,27.9396,-96.8429,2.0,32.7779,11111222 
TABS,ioos:station:wmo:42048:1,2017-11-01T04:30:00Z,27.9396,-96.8429,2.0,32.8021,11111222 
TABS,ioos:station:wmo:42048:1,2017-11-01T05:00:00Z,27.9396,-96.8429,2.0,32.8292,11111222 
TABS,ioos:station:wmo:42048:1,2017-11-01T05:30:00Z,27.9396,-96.8429,2.0,32.842,11111222 
TABS,ioos:station:wmo:42048:1,2017-11-01T06:00:00Z,27.9396,-96.8429,2.0,32.8497,11111222 
TABS,ioos:station:wmo:42048:1,2017-11-01T06:30:00Z,27.9396,-96.8429,2.0,32.8454,11111222 
TABS,ioos:station:wmo:42048:1,2017-11-01T07:00:00Z,27.9396,-96.8429,2.0,32.8418,11111222 
TABS,ioos:station:wmo:42048:1,2017-11-01T07:30:00Z,27.9396,-96.8429,2.0,32.8434,11111222 
TABS,ioos:station:wmo:42048:1,2017-11-01T08:00:00Z,27.9396,-96.8429,2.0,32.8678,11111222 
TABS,ioos:station:wmo:42048:1,2017-11-01T08:30:00Z,27.9396,-96.8429,2.0,32.8798,11111222 
TABS,ioos:station:wmo:42048:1,2017-11-01T09:00:00Z,27.9396,-96.8429,2.0,32.9375,11111222 
TABS,ioos:station:wmo:42048:1,2017-11-01T09:30:00Z,27.9396,-96.8429,2.0,32.9572,11111222 
TABS,ioos:station:wmo:42048:1,2017-11-01T10:00:00Z,27.9396,-96.8429,2.0,32.9728,11111222 
TABS,ioos:station:wmo:42048:1,2017-11-01T10:30:00Z,27.9396,-96.8429,2.0,33.0196,11111222 
TABS,ioos:station:wmo:42048:1,2017-11-01T11:00:00Z,27.9396,-96.8429,2.0,33.0768,11111222 
TABS,ioos:station:wmo:42048:1,2017-11-01T11:30:00Z,27.9396,-96.8429,2.0,33.1185,11111222 
TABS,ioos:station:wmo:42048:1,2017-11-01T12:00:00Z,27.9396,-96.8429,2.0,33.11,11111222 
TABS,ioos:station:wmo:42048:1,2017-11-01T12:30:00Z,27.9396,-96.8429,2.0,33.1409,11111222 
TABS,ioos:station:wmo:42048:1,2017-11-01T13:00:00Z,27.9396,-96.8429,2.0,33.1939,11111222 
TABS,ioos:station:wmo:42048:1,2017-11-01T13:30:00Z,27.9396,-96.8429,2.0,33.2375,11111222 
TABS,ioos:station:wmo:42048:1,2017-11-01T14:00:00Z,27.9396,-96.8429,2.0,33.2597,11111222 
TABS,ioos:station:wmo:42048:1,2017-11-01T14:30:00Z,27.9396,-96.8429,2.0,33.3305,11111222 
TABS,ioos:station:wmo:42048:1,2017-11-01T15:00:00Z,27.9396,-96.8429,2.0,33.4726,11111222 
TABS,ioos:station:wmo:42048:1,2017-11-01T15:30:00Z,27.9396,-96.8429,2.0,33.5005,11111222 
TABS,ioos:station:wmo:42048:1,2017-11-01T16:00:00Z,27.9396,-96.8429,2.0,33.5012,11111222 
TABS,ioos:station:wmo:42048:1,2017-11-01T16:30:00Z,27.9396,-96.8429,2.0,33.3977,11111222 
TABS,ioos:station:wmo:42048:1,2017-11-01T17:00:00Z,27.9396,-96.8429,2.0,33.4604,11111222 
TABS,ioos:station:wmo:42048:1,2017-11-01T17:30:00Z,27.9396,-96.8429,2.0,33.5144,11111222 
TABS,ioos:station:wmo:42048:1,2017-11-01T18:00:00Z,27.9396,-96.8429,2.0,33.7136,11111222 
TABS,ioos:station:wmo:42048:1,2017-11-01T18:30:00Z,27.9396,-96.8429,2.0,33.7192,11111222 
TABS,ioos:station:wmo:42048:1,2017-11-01T19:00:00Z,27.9396,-96.8429,2.0,33.7372,11111222 
TABS,ioos:station:wmo:42048:1,2017-11-01T19:30:00Z,27.9396,-96.8429,2.0,33.7584,11111222 
TABS,ioos:station:wmo:42048:1,2017-11-01T20:00:00Z,27.9396,-96.8429,2.0,33.7618,11111222 
TABS,ioos:station:wmo:42048:1,2017-11-01T20:30:00Z,27.9396,-96.8429,2.0,33.7813,11111222 
TABS,ioos:station:wmo:42048:1,2017-11-01T21:00:00Z,27.9396,-96.8429,2.0,33.8179,11111222 
TABS,ioos:station:wmo:42048:1,2017-11-01T21:30:00Z,27.9396,-96.8429,2.0,33.8117,11111222 
TABS,ioos:station:wmo:42048:1,2017-11-01T22:00:00Z,27.9396,-96.8429,2.0,33.7997,11111222 
TABS,ioos:station:wmo:42048:1,2017-11-01T22:30:00Z,27.9396,-96.8429,2.0,33.7676,11111222 
TABS,ioos:station:wmo:42048:1,2017-11-01T23:00:00Z,27.9396,-96.8429,2.0,33.7588,11111222 
TABS,ioos:station:wmo:42048:1,2017-11-01T23:30:00Z,27.9396,-96.8429,2.0,33.7432,11111222 
TABS,ioos:station:wmo:42048:1,2017-11-02T00:00:00Z,27.9396,-96.8429,2.0,33.7576,11111222 
TABS,ioos:station:wmo:42048:1,2017-11-02T00:30:00Z,27.9396,-96.8429,2.0,33.7281,11111222 
TABS,ioos:station:wmo:42048:1,2017-11-02T01:00:00Z,27.9396,-96.8429,2.0,33.7017,11111222 
TABS,ioos:station:wmo:42048:1,2017-11-02T01:30:00Z,27.9396,-96.8429,2.0,33.6776,11111222 
TABS,ioos:station:wmo:42048:1,2017-11-02T02:00:00Z,27.9396,-96.8429,2.0,33.676,11111222 
TABS,ioos:station:wmo:42048:1,2017-11-02T02:30:00Z,27.9396,-96.8429,2.0,33.7133,11111222 
TABS,ioos:station:wmo:42048:1,2017-11-02T03:00:00Z,27.9396,-96.8429,2.0,33.7023,11111222 
TABS,ioos:station:wmo:42048:1,2017-11-02T03:30:00Z,27.9396,-96.8429,2.0,33.6666,11111222 
TABS,ioos:station:wmo:42048:1,2017-11-02T04:00:00Z,27.9396,-96.8429,2.0,33.649,11111222 
TABS,ioos:station:wmo:42048:1,2017-11-02T04:30:00Z,27.9396,-96.8429,2.0,33.6348,11111222 
TABS,ioos:station:wmo:42048:1,2017-11-02T05:00:00Z,27.9396,-96.8429,2.0,33.6251,11111222 
TABS,ioos:station:wmo:42048:1,2017-11-02T05:30:00Z,27.9396,-96.8429,2.0,33.6189,11111222 
TABS,ioos:station:wmo:42048:1,2017-11-02T06:00:00Z,27.9396,-96.8429,2.0,33.614,11111222 
TABS,ioos:station:wmo:42048:1,2017-11-02T06:30:00Z,27.9396,-96.8429,2.0,33.6025,11111222 
TABS,ioos:station:wmo:42048:1,2017-11-02T07:00:00Z,27.9396,-96.8429,2.0,33.5794,11111222 
TABS,ioos:station:wmo:42048:1,2017-11-02T07:30:00Z,27.9396,-96.8429,2.0,33.5314,11111222 
TABS,ioos:station:wmo:42048:1,2017-11-02T08:00:00Z,27.9396,-96.8429,2.0,33.5088,11111222 
TABS,ioos:station:wmo:42048:1,2017-11-02T08:30:00Z,27.9396,-96.8429,2.0,33.482,11111222 
TABS,ioos:station:wmo:42048:1,2017-11-02T09:00:00Z,27.9396,-96.8429,2.0,33.477,11111222 
TABS,ioos:station:wmo:42048:1,2017-11-02T09:30:00Z,27.9396,-96.8429,2.0,33.459,11111222 
TABS,ioos:station:wmo:42048:1,2017-11-02T10:00:00Z,27.9396,-96.8429,2.0,33.4599,11111222 
TABS,ioos:station:wmo:42048:1,2017-11-02T10:30:00Z,27.9396,-96.8429,2.0,33.4475,11111222 
TABS,ioos:station:wmo:42048:1,2017-11-02T11:00:00Z,27.9396,-96.8429,2.0,33.4694,11111222 
TABS,ioos:station:wmo:42048:1,2017-11-02T11:30:00Z,27.9396,-96.8429,2.0,33.4916,11111222 
TABS,ioos:station:wmo:42048:1,2017-11-02T12:00:00Z,27.9396,-96.8429,2.0,33.5079,11111222 
TABS,ioos:station:wmo:42048:1,2017-11-02T12:30:00Z,27.9396,-96.8429,2.0,33.5262,11111222 
TABS,ioos:station:wmo:42048:1,2017-11-02T13:00:00Z,27.9396,-96.8429,2.0,33.5575,11111222 
TABS,ioos:station:wmo:42048:1,2017-11-02T13:30:00Z,27.9396,-96.8429,2.0,33.5591,11111222 
TABS,ioos:station:wmo:42048:1,2017-11-02T14:00:00Z,27.9396,-96.8429,2.0,33.5849,11111222 
TABS,ioos:station:wmo:42048:1,2017-11-02T14:30:00Z,27.9396,-96.8429,2.0,33.6119,11111222 
TABS,ioos:station:wmo:42048:1,2017-11-02T15:00:00Z,27.9396,-96.8429,2.0,33.619,11111222 
TABS,ioos:station:wmo:42048:1,2017-11-02T15:30:00Z,27.9396,-96.8429,2.0,33.6602,11111222 
TABS,ioos:station:wmo:42048:1,2017-11-02T16:00:00Z,27.9396,-96.8429,2.0,33.693,11111222 
TABS,ioos:station:wmo:42048:1,2017-11-02T16:30:00Z,27.9396,-96.8429,2.0,33.6757,11111222 
TABS,ioos:station:wmo:42048:1,2017-11-02T17:00:00Z,27.9396,-96.8429,2.0,33.8013,11111222 
TABS,ioos:station:wmo:42048:1,2017-11-02T17:30:00Z,27.9396,-96.8429,2.0,33.39,11111222 
TABS,ioos:station:wmo:42048:1,2017-11-02T18:00:00Z,27.9396,-96.8429,2.0,33.2626,11111222 
TABS,ioos:station:wmo:42048:1,2017-11-02T18:30:00Z,27.9396,-96.8429,2.0,33.2032,11111222 
TABS,ioos:station:wmo:42048:1,2017-11-02T19:00:00Z,27.9396,-96.8429,2.0,33.2111,11111222 
TABS,ioos:station:wmo:42048:1,2017-11-02T19:30:00Z,27.9396,-96.8429,2.0,33.1994,11111222 
TABS,ioos:station:wmo:42048:1,2017-11-02T20:00:00Z,27.9396,-96.8429,2.0,33.2173,11111222 
TABS,ioos:station:wmo:42048:1,2017-11-02T20:30:00Z,27.9396,-96.8429,2.0,33.2489,11111222 
TABS,ioos:station:wmo:42048:1,2017-11-02T21:00:00Z,27.9396,-96.8429,2.0,33.2731,11111222 
TABS,ioos:station:wmo:42048:1,2017-11-02T21:30:00Z,27.9396,-96.8429,2.0,33.3248,11111222 
TABS,ioos:station:wmo:42048:1,2017-11-02T22:00:00Z,27.9396,-96.8429,2.0,33.4092,11111222 
TABS,ioos:station:wmo:42048:1,2017-11-02T22:30:00Z,27.9396,-96.8429,2.0,33.8269,11111222 
TABS,ioos:station:wmo:42048:1,2017-11-02T23:00:00Z,27.9396,-96.8429,2.0,33.7964,11111222 
TABS,ioos:station:wmo:42048:1,2017-11-02T23:30:00Z,27.9396,-96.8429,2.0,33.8073,11111222 
TABS,ioos:station:wmo:42048:1,2017-11-03T00:00:00Z,27.9396,-96.8429,2.0,33.8036,11111222 
TABS,ioos:station:wmo:42048:1,2017-11-03T00:30:00Z,27.9396,-96.8429,2.0,33.7751,11111222 
TABS,ioos:station:wmo:42048:1,2017-11-03T01:00:00Z,27.9396,-96.8429,2.0,33.781,11111222 
TABS,ioos:station:wmo:42048:1,2017-11-03T01:30:00Z,27.9396,-96.8429,2.0,33.7826,11111222 
TABS,ioos:station:wmo:42048:1,2017-11-03T02:00:00Z,27.9396,-96.8429,2.0,33.7868,11111222 
TABS,ioos:station:wmo:42048:1,2017-11-03T02:30:00Z,27.9396,-96.8429,2.0,33.7933,11111222 
TABS,ioos:station:wmo:42048:1,2017-11-03T03:00:00Z,27.9396,-96.8429,2.0,33.7853,11111222 
TABS,ioos:station:wmo:42048:1,2017-11-03T03:30:00Z,27.9396,-96.8429,2.0,33.7831,11111222 
TABS,ioos:station:wmo:42048:1,2017-11-03T04:00:00Z,27.9396,-96.8429,2.0,33.7833,11111222 
TABS,ioos:station:wmo:42048:1,2017-11-03T04:30:00Z,27.9396,-96.8429,2.0,33.7746,11111222 
TABS,ioos:station:wmo:42048:1,2017-11-03T05:00:00Z,27.9396,-96.8429,2.0,33.7766,11111222 
TABS,ioos:station:wmo:42048:1,2017-11-03T05:30:00Z,27.9396,-96.8429,2.0,33.79,11111222 
TABS,ioos:station:wmo:42048:1,2017-11-03T06:00:00Z,27.9396,-96.8429,2.0,33.8017,11111222 
TABS,ioos:station:wmo:42048:1,2017-11-03T06:30:00Z,27.9396,-96.8429,2.0,33.8145,11111222 
TABS,ioos:station:wmo:42048:1,2017-11-03T07:00:00Z,27.9396,-96.8429,2.0,33.6319,11111222 
TABS,ioos:station:wmo:42048:1,2017-11-03T07:30:00Z,27.9396,-96.8429,2.0,33.627,11111222 
TABS,ioos:station:wmo:42048:1,2017-11-03T08:00:00Z,27.9396,-96.8429,2.0,33.6175,11111222 
TABS,ioos:station:wmo:42048:1,2017-11-03T08:30:00Z,27.9396,-96.8429,2.0,33.6353,11111222 
TABS,ioos:station:wmo:42048:1,2017-11-03T09:00:00Z,27.9396,-96.8429,2.0,33.6436,11111222 
TABS,ioos:station:wmo:42048:1,2017-11-03T09:30:00Z,27.9396,-96.8429,2.0,33.6443,11111222 
TABS,ioos:station:wmo:42048:1,2017-11-03T10:00:00Z,27.9396,-96.8429,2.0,33.5829,11111222 
TABS,ioos:station:wmo:42048:1,2017-11-03T10:30:00Z,27.9396,-96.8429,2.0,33.6085,11111222 
TABS,ioos:station:wmo:42048:1,2017-11-03T11:00:00Z,27.9396,-96.8429,2.0,33.6096,11111222 
TABS,ioos:station:wmo:42048:1,2017-11-03T11:30:00Z,27.9396,-96.8429,2.0,33.6344,11111222 
TABS,ioos:station:wmo:42048:1,2017-11-03T12:00:00Z,27.9396,-96.8429,2.0,33.6406,11111222 
TABS,ioos:station:wmo:42048:1,2017-11-03T12:30:00Z,27.9396,-96.8429,2.0,33.6448,11111222 
TABS,ioos:station:wmo:42048:1,2017-11-03T13:00:00Z,27.9396,-96.8429,2.0,33.6544,11111222 
TABS,ioos:station:wmo:42048:1,2017-11-03T13:30:00Z,27.9396,-96.8429,2.0,33.6656,11111222 
TABS,ioos:station:wmo:42048:1,2017-11-03T14:00:00Z,27.9396,-96.8429,2.0,33.6536,11111222 
TABS,ioos:station:wmo:42048:1,2017-11-03T14:30:00Z,27.9396,-96.8429,2.0,33.654,11111222 
TABS,ioos:station:wmo:42048:1,2017-11-03T15:00:00Z,27.9396,-96.8429,2.0,33.6523,11111222 
TABS,ioos:station:wmo:42048:1,2017-11-03T15:30:00Z,27.9396,-96.8429,2.0,33.6896,11111222 
TABS,ioos:station:wmo:42048:1,2017-11-03T16:00:00Z,27.9396,-96.8429,2.0,33.6945,11111222 
TABS,ioos:station:wmo:42048:1,2017-11-03T16:30:00Z,27.9396,-96.8429,2.0,33.6802,11111222 
TABS,ioos:station:wmo:42048:1,2017-11-03T17:00:00Z,27.9396,-96.8429,2.0,33.6794,11111222 
TABS,ioos:station:wmo:42048:1,2017-11-03T17:30:00Z,27.9396,-96.8429,2.0,33.6832,11111222 
TABS,ioos:station:wmo:42048:1,2017-11-03T18:00:00Z,27.9396,-96.8429,2.0,33.6944,11111222 
TABS,ioos:station:wmo:42048:1,2017-11-03T18:30:00Z,27.9396,-96.8429,2.0,33.6907,11111222 
TABS,ioos:station:wmo:42048:1,2017-11-03T19:00:00Z,27.9396,-96.8429,2.0,33.7465,11111222 
TABS,ioos:station:wmo:42048:1,2017-11-03T19:30:00Z,27.9396,-96.8429,2.0,33.7859,11111222 
TABS,ioos:station:wmo:42048:1,2017-11-03T20:00:00Z,27.9396,-96.8429,2.0,33.7888,11111222 
TABS,ioos:station:wmo:42048:1,2017-11-03T20:30:00Z,27.9396,-96.8429,2.0,33.7897,11111222 
TABS,ioos:station:wmo:42048:1,2017-11-03T21:00:00Z,27.9396,-96.8429,2.0,33.7882,11111222 
TABS,ioos:station:wmo:42048:1,2017-11-03T21:30:00Z,27.9396,-96.8429,2.0,33.7867,11111222 
TABS,ioos:station:wmo:42048:1,2017-11-03T22:00:00Z,27.9396,-96.8429,2.0,33.7868,11111222 
TABS,ioos:station:wmo:42048:1,2017-11-03T22:30:00Z,27.9396,-96.8429,2.0,33.7856,11111222 
TABS,ioos:station:wmo:42048:1,2017-11-03T23:00:00Z,27.9396,-96.8429,2.0,33.7905,11111222 
TABS,ioos:station:wmo:42048:1,2017-11-03T23:30:00Z,27.9396,-96.8429,2.0,33.7912,11111222 
TABS,ioos:station:wmo:42048:1,2017-11-04T00:00:00Z,27.9396,-96.8429,2.0,33.7977,11111222 
TABS,ioos:station:wmo:42048:1,2017-11-04T00:30:00Z,27.9396,-96.8429,2.0,33.8019,11111222 
TABS,ioos:station:wmo:42048:1,2017-11-04T01:00:00Z,27.9396,-96.8429,2.0,33.8042,11111222 
TABS,ioos:station:wmo:42048:1,2017-11-04T01:30:00Z,27.9396,-96.8429,2.0,33.8065,11111222 
TABS,ioos:station:wmo:42048:1,2017-11-04T02:00:00Z,27.9396,-96.8429,2.0,33.809,11111222 
TABS,ioos:station:wmo:42048:1,2017-11-04T02:30:00Z,27.9396,-96.8429,2.0,33.8131,11111222 
TABS,ioos:station:wmo:42048:1,2017-11-04T03:00:00Z,27.9396,-96.8429,2.0,33.8121,11111222 
TABS,ioos:station:wmo:42048:1,2017-11-04T03:30:00Z,27.9396,-96.8429,2.0,33.8152,11111222 
TABS,ioos:station:wmo:42048:1,2017-11-04T04:00:00Z,27.9396,-96.8429,2.0,33.8209,11111222 
TABS,ioos:station:wmo:42048:1,2017-11-04T04:30:00Z,27.9396,-96.8429,2.0,33.8278,11111222 
TABS,ioos:station:wmo:42048:1,2017-11-04T05:00:00Z,27.9396,-96.8429,2.0,33.8298,11111222 
TABS,ioos:station:wmo:42048:1,2017-11-04T05:30:00Z,27.9396,-96.8429,2.0,33.8366,11111222 
TABS,ioos:station:wmo:42048:1,2017-11-04T06:00:00Z,27.9396,-96.8429,2.0,33.838,11111222 
TABS,ioos:station:wmo:42048:1,2017-11-04T06:30:00Z,27.9396,-96.8429,2.0,33.8429,11111222 
TABS,ioos:station:wmo:42048:1,2017-11-04T07:00:00Z,27.9396,-96.8429,2.0,33.8415,11111222 
TABS,ioos:station:wmo:42048:1,2017-11-04T07:30:00Z,27.9396,-96.8429,2.0,33.8486,11111222 
TABS,ioos:station:wmo:42048:1,2017-11-04T08:00:00Z,27.9396,-96.8429,2.0,33.8532,11111222 
TABS,ioos:station:wmo:42048:1,2017-11-04T08:30:00Z,27.9396,-96.8429,2.0,33.8619,11111222 
TABS,ioos:station:wmo:42048:1,2017-11-04T09:00:00Z,27.9396,-96.8429,2.0,33.8669,11111222 
TABS,ioos:station:wmo:42048:1,2017-11-04T09:30:00Z,27.9396,-96.8429,2.0,33.8793,11111222 
TABS,ioos:station:wmo:42048:1,2017-11-04T10:00:00Z,27.9396,-96.8429,2.0,33.8875,11111222 
TABS,ioos:station:wmo:42048:1,2017-11-04T10:30:00Z,27.9396,-96.8429,2.0,33.892,11111222 
TABS,ioos:station:wmo:42048:1,2017-11-04T11:00:00Z,27.9396,-96.8429,2.0,33.8988,11111222 
TABS,ioos:station:wmo:42048:1,2017-11-04T11:30:00Z,27.9396,-96.8429,2.0,33.8982,11111222 
TABS,ioos:station:wmo:42048:1,2017-11-04T12:00:00Z,27.9396,-96.8429,2.0,33.8987,11111222 
TABS,ioos:station:wmo:42048:1,2017-11-04T12:30:00Z,27.9396,-96.8429,2.0,33.9027,11111222 
TABS,ioos:station:wmo:42048:1,2017-11-04T13:00:00Z,27.9396,-96.8429,2.0,33.9037,11111222 
TABS,ioos:station:wmo:42048:1,2017-11-04T13:30:00Z,27.9396,-96.8429,2.0,33.9047,11111222 
TABS,ioos:station:wmo:42048:1,2017-11-04T14:00:00Z,27.9396,-96.8429,2.0,33.9107,11111222 
TABS,ioos:station:wmo:42048:1,2017-11-04T14:30:00Z,27.9396,-96.8429,2.0,33.9083,11111222 
TABS,ioos:station:wmo:42048:1,2017-11-04T15:00:00Z,27.9396,-96.8429,2.0,33.9078,11111222 
TABS,ioos:station:wmo:42048:1,2017-11-04T15:30:00Z,27.9396,-96.8429,2.0,33.9094,11111222 
TABS,ioos:station:wmo:42048:1,2017-11-04T16:00:00Z,27.9396,-96.8429,2.0,33.9082,11111222 
TABS,ioos:station:wmo:42048:1,2017-11-04T16:30:00Z,27.9396,-96.8429,2.0,33.9108,11111222 
TABS,ioos:station:wmo:42048:1,2017-11-04T17:00:00Z,27.9396,-96.8429,2.0,33.9106,11111222 
TABS,ioos:station:wmo:42048:1,2017-11-04T17:30:00Z,27.9396,-96.8429,2.0,33.9072,11111222 
TABS,ioos:station:wmo:42048:1,2017-11-04T18:00:00Z,27.9396,-96.8429,2.0,33.9086,11111222 
TABS,ioos:station:wmo:42048:1,2017-11-04T18:30:00Z,27.9396,-96.8429,2.0,33.9049,11111222 
TABS,ioos:station:wmo:42048:1,2017-11-04T19:00:00Z,27.9396,-96.8429,2.0,33.9056,11111222 
TABS,ioos:station:wmo:42048:1,2017-11-04T19:30:00Z,27.9396,-96.8429,2.0,33.9079,11111222 
TABS,ioos:station:wmo:42048:1,2017-11-04T20:00:00Z,27.9396,-96.8429,2.0,33.9034,11111222 
TABS,ioos:station:wmo:42048:1,2017-11-04T20:30:00Z,27.9396,-96.8429,2.0,33.9063,11111222 
TABS,ioos:station:wmo:42048:1,2017-11-04T21:00:00Z,27.9396,-96.8429,2.0,33.9059,11111222 
TABS,ioos:station:wmo:42048:1,2017-11-04T21:30:00Z,27.9396,-96.8429,2.0,33.9116,11111222 
TABS,ioos:station:wmo:42048:1,2017-11-04T22:00:00Z,27.9396,-96.8429,2.0,33.9091,11111222 
TABS,ioos:station:wmo:42048:1,2017-11-04T22:30:00Z,27.9396,-96.8429,2.0,33.9064,11111222 
TABS,ioos:station:wmo:42048:1,2017-11-04T23:00:00Z,27.9396,-96.8429,2.0,33.9027,11111222 
TABS,ioos:station:wmo:42048:1,2017-11-04T23:30:00Z,27.9396,-96.8429,2.0,33.8924,11111222 
TABS,ioos:station:wmo:42048:1,2017-11-05T00:00:00Z,27.9396,-96.8429,2.0,33.8863,11111222 
TABS,ioos:station:wmo:42048:1,2017-11-05T00:30:00Z,27.9396,-96.8429,2.0,33.8735,11111222 
TABS,ioos:station:wmo:42048:1,2017-11-05T01:00:00Z,27.9396,-96.8429,2.0,33.8624,11111222 
TABS,ioos:station:wmo:42048:1,2017-11-05T01:30:00Z,27.9396,-96.8429,2.0,33.859,11111222 
TABS,ioos:station:wmo:42048:1,2017-11-05T02:00:00Z,27.9396,-96.8429,2.0,33.8606,11111222 
TABS,ioos:station:wmo:42048:1,2017-11-05T02:30:00Z,27.9396,-96.8429,2.0,33.8631,11111222 
TABS,ioos:station:wmo:42048:1,2017-11-05T03:00:00Z,27.9396,-96.8429,2.0,33.866,11111222 
TABS,ioos:station:wmo:42048:1,2017-11-05T03:30:00Z,27.9396,-96.8429,2.0,33.867,11111222 
TABS,ioos:station:wmo:42048:1,2017-11-05T04:00:00Z,27.9396,-96.8429,2.0,33.8682,11111222 
TABS,ioos:station:wmo:42048:1,2017-11-05T04:30:00Z,27.9396,-96.8429,2.0,33.8671,11111222 
TABS,ioos:station:wmo:42048:1,2017-11-05T05:00:00Z,27.9396,-96.8429,2.0,33.8679,11111222 
TABS,ioos:station:wmo:42048:1,2017-11-05T05:30:00Z,27.9396,-96.8429,2.0,33.8667,11111222 
TABS,ioos:station:wmo:42048:1,2017-11-05T06:00:00Z,27.9396,-96.8429,2.0,33.8772,11111222 
TABS,ioos:station:wmo:42048:1,2017-11-05T06:30:00Z,27.9396,-96.8429,2.0,33.8836,11111222 
TABS,ioos:station:wmo:42048:1,2017-11-05T07:00:00Z,27.9396,-96.8429,2.0,33.8851,11111222 
TABS,ioos:station:wmo:42048:1,2017-11-05T07:30:00Z,27.9396,-96.8429,2.0,33.8841,11111222 
TABS,ioos:station:wmo:42048:1,2017-11-05T08:00:00Z,27.9396,-96.8429,2.0,33.8927,11111222 
TABS,ioos:station:wmo:42048:1,2017-11-05T08:30:00Z,27.9396,-96.8429,2.0,33.8971,11111222 
TABS,ioos:station:wmo:42048:1,2017-11-05T09:00:00Z,27.9396,-96.8429,2.0,33.8962,11111222 
TABS,ioos:station:wmo:42048:1,2017-11-05T09:30:00Z,27.9396,-96.8429,2.0,33.8968,11111222 
TABS,ioos:station:wmo:42048:1,2017-11-05T10:00:00Z,27.9396,-96.8429,2.0,33.8928,11111222 
TABS,ioos:station:wmo:42048:1,2017-11-05T10:30:00Z,27.9396,-96.8429,2.0,33.8869,11111222 
TABS,ioos:station:wmo:42048:1,2017-11-05T11:00:00Z,27.9396,-96.8429,2.0,33.8869,11111222 
TABS,ioos:station:wmo:42048:1,2017-11-05T11:30:00Z,27.9396,-96.8429,2.0,33.8795,11111222 
TABS,ioos:station:wmo:42048:1,2017-11-05T12:00:00Z,27.9396,-96.8429,2.0,33.8777,11111222 
TABS,ioos:station:wmo:42048:1,2017-11-05T12:30:00Z,27.9396,-96.8429,2.0,33.8595,11111222 
TABS,ioos:station:wmo:42048:1,2017-11-05T13:00:00Z,27.9396,-96.8429,2.0,33.867,11111222 
TABS,ioos:station:wmo:42048:1,2017-11-05T13:30:00Z,27.9396,-96.8429,2.0,33.8577,11111222 
TABS,ioos:station:wmo:42048:1,2017-11-05T14:00:00Z,27.9396,-96.8429,2.0,33.8424,11111222 
TABS,ioos:station:wmo:42048:1,2017-11-05T14:30:00Z,27.9396,-96.8429,2.0,33.8371,11111222 
TABS,ioos:station:wmo:42048:1,2017-11-05T15:00:00Z,27.9396,-96.8429,2.0,33.8418,11111222 
TABS,ioos:station:wmo:42048:1,2017-11-05T15:30:00Z,27.9396,-96.8429,2.0,33.8542,11111222 
TABS,ioos:station:wmo:42048:1,2017-11-05T16:00:00Z,27.9396,-96.8429,2.0,33.8662,11111222 
TABS,ioos:station:wmo:42048:1,2017-11-05T16:30:00Z,27.9396,-96.8429,2.0,33.8685,11111222 
TABS,ioos:station:wmo:42048:1,2017-11-05T17:00:00Z,27.9396,-96.8429,2.0,33.8749,11111222 
TABS,ioos:station:wmo:42048:1,2017-11-05T17:30:00Z,27.9396,-96.8429,2.0,33.8816,11111222 
TABS,ioos:station:wmo:42048:1,2017-11-05T18:00:00Z,27.9396,-96.8429,2.0,33.8921,11111222 
TABS,ioos:station:wmo:42048:1,2017-11-05T18:30:00Z,27.9396,-96.8429,2.0,33.9054,11111222 
TABS,ioos:station:wmo:42048:1,2017-11-05T19:00:00Z,27.9396,-96.8429,2.0,33.9151,11111222 
TABS,ioos:station:wmo:42048:1,2017-11-05T19:30:00Z,27.9396,-96.8429,2.0,33.9427,11111222 
TABS,ioos:station:wmo:42048:1,2017-11-05T20:00:00Z,27.9396,-96.8429,2.0,33.9451,11111222 
TABS,ioos:station:wmo:42048:1,2017-11-05T20:30:00Z,27.9396,-96.8429,2.0,33.9564,11111222 
TABS,ioos:station:wmo:42048:1,2017-11-05T21:00:00Z,27.9396,-96.8429,2.0,33.8234,11111222 
TABS,ioos:station:wmo:42048:1,2017-11-05T21:30:00Z,27.9396,-96.8429,2.0,33.7373,11111222 
TABS,ioos:station:wmo:42048:1,2017-11-05T22:00:00Z,27.9396,-96.8429,2.0,33.7208,11111222 
TABS,ioos:station:wmo:42048:1,2017-11-05T22:30:00Z,27.9396,-96.8429,2.0,33.7171,11111222 
TABS,ioos:station:wmo:42048:1,2017-11-05T23:00:00Z,27.9396,-96.8429,2.0,33.7099,11111222 
TABS,ioos:station:wmo:42048:1,2017-11-05T23:30:00Z,27.9396,-96.8429,2.0,33.7147,11111222 
TABS,ioos:station:wmo:42048:1,2017-11-06T00:00:00Z,27.9396,-96.8429,2.0,33.7196,11111222 
TABS,ioos:station:wmo:42048:1,2017-11-06T00:30:00Z,27.9396,-96.8429,2.0,33.7313,11111222 
TABS,ioos:station:wmo:42048:1,2017-11-06T01:00:00Z,27.9396,-96.8429,2.0,33.728,11111222 
TABS,ioos:station:wmo:42048:1,2017-11-06T01:30:00Z,27.9396,-96.8429,2.0,33.7317,11111222 
TABS,ioos:station:wmo:42048:1,2017-11-06T02:00:00Z,27.9396,-96.8429,2.0,33.7337,11111222 
TABS,ioos:station:wmo:42048:1,2017-11-06T02:30:00Z,27.9396,-96.8429,2.0,33.7358,11111222 
TABS,ioos:station:wmo:42048:1,2017-11-06T03:00:00Z,27.9396,-96.8429,2.0,33.7424,11111222 
TABS,ioos:station:wmo:42048:1,2017-11-06T03:30:00Z,27.9396,-96.8429,2.0,33.7242,11111222 
TABS,ioos:station:wmo:42048:1,2017-11-06T04:00:00Z,27.9396,-96.8429,2.0,33.7564,11111222 
TABS,ioos:station:wmo:42048:1,2017-11-06T04:30:00Z,27.9396,-96.8429,2.0,33.7439,11111222 
TABS,ioos:station:wmo:42048:1,2017-11-06T05:00:00Z,27.9396,-96.8429,2.0,33.7374,11111222 
TABS,ioos:station:wmo:42048:1,2017-11-06T05:30:00Z,27.9396,-96.8429,2.0,33.7447,11111222 
TABS,ioos:station:wmo:42048:1,2017-11-06T06:00:00Z,27.9396,-96.8429,2.0,33.7933,11111222 
TABS,ioos:station:wmo:42048:1,2017-11-06T06:30:00Z,27.9396,-96.8429,2.0,33.8423,11111222 
TABS,ioos:station:wmo:42048:1,2017-11-06T07:00:00Z,27.9396,-96.8429,2.0,33.878,11111222 
TABS,ioos:station:wmo:42048:1,2017-11-06T07:30:00Z,27.9396,-96.8429,2.0,33.9068,11111222 
TABS,ioos:station:wmo:42048:1,2017-11-06T08:00:00Z,27.9396,-96.8429,2.0,33.796,11111222 
TABS,ioos:station:wmo:42048:1,2017-11-06T08:30:00Z,27.9396,-96.8429,2.0,33.8512,11111222 
TABS,ioos:station:wmo:42048:1,2017-11-06T09:00:00Z,27.9396,-96.8429,2.0,33.8832,11111222 
TABS,ioos:station:wmo:42048:1,2017-11-06T09:30:00Z,27.9396,-96.8429,2.0,33.8822,11111222 
TABS,ioos:station:wmo:42048:1,2017-11-06T10:00:00Z,27.9396,-96.8429,2.0,33.8888,11111222 
TABS,ioos:station:wmo:42048:1,2017-11-06T10:30:00Z,27.9396,-96.8429,2.0,33.9253,11111222 
TABS,ioos:station:wmo:42048:1,2017-11-06T11:00:00Z,27.9396,-96.8429,2.0,33.9542,11111222 
TABS,ioos:station:wmo:42048:1,2017-11-06T11:30:00Z,27.9396,-96.8429,2.0,34.0455,11111222 
TABS,ioos:station:wmo:42048:1,2017-11-06T12:00:00Z,27.9396,-96.8429,2.0,34.168,11111222 
TABS,ioos:station:wmo:42048:1,2017-11-06T12:30:00Z,27.9396,-96.8429,2.0,34.0476,11111222 